[[{"header":{"parameterUnit":"m.s-1","parameterCategory":1,"la1":30.2991,"la2":30.254,"lo1":-89.0895,"lo2":-89.0444,"dy":0.0017,"dx":0.0017,"nx":28,"ny":28,"refTime":"2023-10-01T09:00:00:Z","depth":0,"parameterNumber":2,"parameterNumberName":"U-component_of_WINDS"},"data":[0,0,0,0,0,0,0,0,0,0,0,0,0,0,0,0,0,0,0,0,0,0,0,0,0,0,0,0,0,0,0,0,0,0,0,0,0,0,0,0,0,0,0,0,0,0,0,0,0,0,0,0,0,0,0,0,0,0,-3.3536,-3.3537,0,-3.3624,-3.3625,-3.3626,-3.3518,-3.3514,-3.351,-3.3506,-3.3604,-3.361,-3.3616,0,0,0,0,0,0,0,0,0,0,0,0,0,-3.328,-3.3286,-3.3536,-3.3537,-3.3538,-3.3624,-3.3625,-3.3627,-3.3519,-3.3514,-3.3509,-3.3504,-3.3602,-3.3609,-3.3617,0,0,0,0,0,0,0,0,0,0,0,0,0,-3.3383,-3.3287,-3.3536,-3.3495,-3.3492,-3.3624,-3.3625,-3.3627,-3.352,-3.3514,-3.3508,-3.3502,-3.3599,-3.3608,-3.3618,-3.3797,0,0,-3.3647,-3.3651,0,0,0,0,0,0,0,0,-3.3377,-3.3392,-3.35,-3.3498,-3.3495,-3.3554,-3.3571,-3.3684,-3.3521,-3.3509,-3.3506,-3.3499,-3.3592,-3.3602,-3.3632,-3.3802,-3.3806,-3.3648,-3.3653,-3.3657,-3.366,0,0,0,0,0,0,0,-3.337,-3.3388,-3.3571,-3.3501,-3.3498,-3.3474,-3.3482,-3.3592,-3.3584,-3.351,-3.3502,-3.3514,-3.359,-3.3623,-3.3634,-3.3807,-3.3647,-3.3656,-3.3662,-3.3665,-3.413,-3.4137,0,0,0,0,0,0,-3.3367,-3.3382,-3.3568,-3.3574,-3.3419,-3.3483,-3.3492,-3.3541,-3.3582,-3.3583,-3.3519,-3.3508,-3.361,-3.3623,-3.3637,-3.3851,-3.3657,-3.3666,-3.3672,-3.4124,-3.4132,-3.4139,0,0,0,0,0,0,-3.3362,-3.3384,-3.3565,-3.3476,-3.3497,-3.3494,-3.355,-3.3546,-3.3579,-3.3589,-3.3588,-3.3554,-3.3606,-3.3623,-3.3758,-3.3853,-3.3671,-3.3679,-3.4116,-3.4126,-3.4135,-3.4281,0,0,0,0,0,0,-3.3355,-3.3383,-3.345,-3.3478,-3.3502,-3.3683,-3.3556,-3.3552,-3.3595,-3.3582,-3.3621,-3.3622,-3.3602,-3.3744,-3.3767,-3.3863,-3.3687,-3.4107,-3.412,-3.4132,-3.4268,-3.4295,-3.4318,0,0,0,0,0,-3.3346,-3.3488,-3.3454,-3.3477,-3.3585,-3.3689,-3.3703,-3.3675,-3.3603,-3.3671,-3.3677,-3.3621,-3.3838,-3.3759,-3.3784,-3.3884,-3.4101,-3.4117,-3.4131,-3.4257,-3.4289,-3.4317,0,0,0,0,0,0,-3.3474,-3.3491,-3.3453,-3.3609,-3.3648,-3.367,-3.3755,-3.371,-3.3772,-3.3758,-3.3723,-3.3733,-3.3877,-3.3893,-3.3804,-3.406,-3.3958,-3.3979,-3.4045,-3.4076,-3.4101,-3.4096,-3.3695,0,0,0,0,0,-3.3519,-3.36,-3.3612,-3.3748,-3.3769,-3.3759,-3.3803,-3.3778,-3.3818,-3.3835,-3.3851,-3.3894,-3.3972,-3.4024,-3.4096,-3.4268,-3.4277,-3.4349,-3.4374,-3.4395,-3.4414,-3.4509,-3.4542,-3.4188,-3.4188,-3.4188,0,0,-3.3616,-3.3636,-3.3689,-3.3774,-3.3801,-3.3888,-3.3774,-3.387,-3.3935,-3.385,-3.3978,-3.3992,-3.4038,-3.4192,-3.4261,-3.4211,-3.4514,-3.4414,-3.443,-3.4439,-3.4528,-3.4562,-3.4591,-3.4198,-3.4196,-3.4195,0,0,-3.3837,-3.3858,-3.3975,-3.4004,-3.4046,-3.4038,-3.4066,-3.4096,-3.4101,-3.4228,-3.4167,-3.4244,-3.4378,-3.4414,-3.445,-3.4683,-3.4635,-3.4708,-3.484,-3.4933,-3.4961,-3.4986,-3.5072,-3.5103,-3.4726,-3.4727,-3.4727,0,-3.3952,-3.4078,-3.4041,-3.4142,-3.4182,-3.4106,-3.4226,-3.4257,-3.4322,-3.4352,-3.4293,-3.4461,-3.4486,-3.465,-3.4706,-3.4737,-3.477,-3.4705,-3.4959,-3.4984,-3.5006,-3.5088,-3.5121,-3.4736,-3.4735,-3.4734,-3.4733,0,-3.422,-3.4308,-3.4397,-3.446,-3.451,-3.462,-3.4601,-3.4657,-3.4627,-3.4626,-3.4758,-3.4785,-3.4862,-3.4898,-3.4871,-3.5059,-3.5026,-3.4964,-3.4861,-3.5049,-3.5126,-3.5157,-3.4748,-3.4745,-3.4742,-3.474,0,0,-3.4526,-3.4565,-3.4599,-3.4627,-3.4667,-3.4736,-3.4843,-3.4916,-3.4966,-3.5012,-3.5104,-3.5218,-3.5161,-3.5202,-3.5177,-3.5258,-3.5446,-3.5186,-3.5187,-3.5237,-3.5658,-3.5707,-3.5744,-3.5412,-3.5418,-3.5422,-3.5655,0,-3.475,-3.4933,-3.4902,-3.5081,-3.5164,-3.5092,-3.5186,-3.5222,-3.5224,-3.5296,-3.5298,-3.5382,-3.5298,-3.5322,-3.5399,-3.5407,-3.553,-3.5389,-3.55,-3.5504,-3.5494,-3.5783,-3.5836,-3.6054,-3.5684,-3.5689,-3.5693,0,-3.5035,-3.5091,-3.5277,-3.5305,-3.5339,-3.5423,-3.5488,-3.5557,-3.5597,-3.5593,-3.5638,-3.5599,-3.5709,-3.5601,-3.5753,-3.5658,-3.5701,-3.5712,-3.5719,-3.5732,-3.5613,-3.5807,-3.6123,-3.6157,-3.5739,-3.5736,-3.5732,0,-3.5244,-3.5365,-3.5493,-3.5519,-3.5554,-3.5615,-3.5633,-3.5667,-3.5713,-3.577,-3.5801,-3.5871,-3.5911,-3.5967,-3.5949,-3.5872,-3.6106,-3.5996,-3.6109,-3.611,-3.6165,-3.6163,-3.6496,-3.6187,-3.6186,-3.6186,-3.6185,0,-3.5499,-3.5617,-3.5587,-3.5667,-3.5797,-3.5761,-3.5892,-3.5901,-3.5932,-3.6014,-3.5956,-3.6034,-3.6003,-3.6081,-3.6067,-3.6197,-3.6215,-3.6217,-3.6213,-3.6224,-3.6225,-3.6255,-3.6241,-3.6194,-3.6193,-3.6191,-3.6189,0,-3.5757,-3.5741,-3.5876,-3.5897,-3.5905,-3.6001,-3.602,-3.6096,-3.6091,-3.6196,-3.6218,-3.6214,-3.6302,-3.6288,-3.6386,-3.6377,-3.654,-3.6515,-3.6526,-3.6522,-3.6637,-3.6628,-3.7004,-3.7053,-3.6709,-3.6713,-3.6715,0,-3.5922,-3.6011,-3.6041,-3.609,-3.6112,-3.6192,-3.6239,-3.6207,-3.6258,-3.631,-3.6381,-3.6462,-3.6526,-3.6671,-3.6678,-3.6753,-3.6732,-3.6859,-3.6744,-3.6753,-3.6739,-3.6735,-3.6745,-3.6883,-3.6887,-3.689,-3.6893,0,-3.6219,-3.6206,-3.6274,-3.634,-3.6396,-3.6447,-3.6493,-3.6537,-3.6509,-3.657,-3.6658,-3.6707,-3.6806,-3.689,-3.696,-3.6981,-3.6935,-3.6928,-3.6959,-3.6974,-3.6978,-3.6981,-3.6593,-3.6921,-3.6918,-3.6916,-3.6915,-3.6913,-3.6437,-3.6514,-3.6547,-3.6625,-3.6655,-3.6699,-3.6771,-3.6775,-3.6847,-3.6924,-3.6901,-3.7002,-3.7041,-3.713,-3.7158,-3.7239,-3.7192,-3.7236,-3.7248,-3.726,-3.7276,-3.6962,-3.7251,-3.725,-3.7249,-3.7249,-3.7248,0,-3.6734,-3.6751,-3.6823,-3.6888,-3.695,-3.6895,-3.6943,-3.7,-3.7088,-3.7127,-3.7191,-3.7293,-3.7374,-3.7387,-3.7464,-3.7526,-3.7507,-3.7548,-3.7545,-3.7551,-3.7311,-3.7278,-3.7562,-3.7562,-3.7562,-3.7562,-3.7562,-3.7562,-3.6896,-3.7023,-3.7014,-3.7156,-3.7173,-3.727,-3.7302,-3.7343,-3.7374,-3.749,-3.7556,-3.7562,-3.7592,-3.767,-3.7743,-3.7745,-3.7778,-3.7828,-3.7823,-3.7599,-3.7568,-3.7538,-3.7507,-3.7835,-3.7835,-3.8057,-3.8059,-3.806]},{"header":{"parameterUnit":"m.s-1","parameterCategory":1,"la1":30.2991,"la2":30.254,"lo1":-89.0895,"lo2":-89.0444,"dy":0.0017,"dx":0.0017,"nx":28,"ny":28,"refTime":"2023-10-01T09:00:00:Z","depth":0,"parameterNumber":3,"parameterNumberName":"V-component_of_WINDS"},"data":[0,0,0,0,0,0,0,0,0,0,0,0,0,0,0,0,0,0,0,0,0,0,0,0,0,0,0,0,0,0,0,0,0,0,0,0,0,0,0,0,0,0,0,0,0,0,0,0,0,0,0,0,0,0,0,0,0,0,-1.1376,-1.1378,0,-1.1544,-1.1546,-1.1548,-1.1626,-1.1626,-1.1625,-1.1625,-1.1797,-1.1802,-1.1807,0,0,0,0,0,0,0,0,0,0,0,0,0,-1.1122,-1.1126,-1.1376,-1.1378,-1.138,-1.1544,-1.1546,-1.1549,-1.1626,-1.1626,-1.1625,-1.1625,-1.1796,-1.1801,-1.1807,0,0,0,0,0,0,0,0,0,0,0,0,0,-1.1255,-1.1128,-1.1376,-1.1438,-1.1446,-1.1543,-1.1546,-1.1549,-1.1626,-1.1626,-1.1625,-1.1625,-1.1794,-1.1801,-1.1808,-1.1856,0,0,-1.1829,-1.1833,0,0,0,0,0,0,0,0,-1.1248,-1.1265,-1.1427,-1.1434,-1.1443,-1.1564,-1.152,-1.1652,-1.1626,-1.1557,-1.1625,-1.1625,-1.172,-1.1733,-1.1765,-1.1864,-1.1871,-1.183,-1.1834,-1.1837,-1.1839,0,0,0,0,0,0,0,-1.1238,-1.1258,-1.1443,-1.1429,-1.1439,-1.1458,-1.1477,-1.1545,-1.1638,-1.1563,-1.1569,-1.1588,-1.1724,-1.1758,-1.177,-1.1874,-1.183,-1.1836,-1.1841,-1.1843,-1.2021,-1.2022,0,0,0,0,0,0,-1.1219,-1.125,-1.1437,-1.1448,-1.1343,-1.1463,-1.1484,-1.1525,-1.1637,-1.1654,-1.1588,-1.1591,-1.1746,-1.1761,-1.1776,-1.184,-1.1837,-1.1844,-1.1848,-1.2021,-1.2021,-1.2022,0,0,0,0,0,0,-1.1213,-1.1235,-1.143,-1.135,-1.1377,-1.1468,-1.1513,-1.1529,-1.1563,-1.1656,-1.1673,-1.1606,-1.1746,-1.1766,-1.1836,-1.1847,-1.1847,-1.1854,-1.202,-1.2021,-1.2022,-1.1968,0,0,0,0,0,0,-1.1206,-1.1232,-1.1251,-1.135,-1.1381,-1.1487,-1.1514,-1.1532,-1.1575,-1.158,-1.1677,-1.1693,-1.1748,-1.1825,-1.1843,-1.1857,-1.1859,-1.202,-1.202,-1.2021,-1.1969,-1.1967,-1.1965,0,0,0,0,0,-1.1196,-1.1229,-1.1252,-1.1274,-1.1406,-1.1487,-1.1505,-1.1567,-1.1575,-1.1595,-1.1655,-1.169,-1.1843,-1.1831,-1.1852,-1.1868,-1.2019,-1.202,-1.2021,-1.197,-1.1967,-1.1965,0,0,0,0,0,0,-1.1129,-1.1243,-1.127,-1.1336,-1.1401,-1.15,-1.1527,-1.1562,-1.1627,-1.1629,-1.1704,-1.1725,-1.1788,-1.1836,-1.182,-1.1921,-1.1934,-1.1939,-1.1888,-1.1886,-1.1884,-1.1871,-1.1865,0,0,0,0,0,-1.1122,-1.1178,-1.1275,-1.1324,-1.1356,-1.1436,-1.1473,-1.1516,-1.1587,-1.1615,-1.168,-1.1747,-1.1811,-1.1851,-1.1915,-1.1976,-1.1999,-1.1998,-1.1996,-1.1994,-1.1997,-1.2034,-1.2035,-1.2025,-1.2025,-1.2025,0,0,-1.1108,-1.1178,-1.1208,-1.1313,-1.1368,-1.1425,-1.1458,-1.1517,-1.156,-1.1624,-1.1694,-1.1744,-1.1824,-1.189,-1.1922,-1.1931,-1.2005,-1.1995,-1.1992,-1.1998,-1.2036,-1.2036,-1.2037,-1.2026,-1.2026,-1.2026,0,0,-1.1112,-1.117,-1.1217,-1.1273,-1.1357,-1.141,-1.1421,-1.1515,-1.1551,-1.1622,-1.1671,-1.1723,-1.1831,-1.1887,-1.1929,-1.1954,-1.1988,-1.1972,-1.1961,-1.1996,-1.1997,-1.1998,-1.2007,-1.201,-1.1976,-1.1976,-1.1975,0,-1.1084,-1.1171,-1.1237,-1.1293,-1.1338,-1.1398,-1.1447,-1.1498,-1.1598,-1.1627,-1.1636,-1.1773,-1.1831,-1.1911,-1.1917,-1.1949,-1.1965,-1.1962,-1.1991,-1.1993,-1.1995,-1.2005,-1.2008,-1.1973,-1.1973,-1.1974,-1.1974,0,-1.1133,-1.1193,-1.1221,-1.1317,-1.1365,-1.1416,-1.1491,-1.1531,-1.1569,-1.1621,-1.1693,-1.1766,-1.1845,-1.1867,-1.1905,-1.1953,-1.1956,-1.1977,-1.1992,-1.1992,-1.2003,-1.2007,-1.197,-1.197,-1.1971,-1.1972,0,0,-1.1099,-1.1231,-1.124,-1.1285,-1.1382,-1.143,-1.1484,-1.1562,-1.1596,-1.1663,-1.1711,-1.1801,-1.1821,-1.1869,-1.1914,-1.1945,-1.1961,-1.1962,-1.1965,-1.196,-1.2019,-1.2002,-1.2006,-1.1984,-1.1985,-1.1986,-1.2012,0,-1.1117,-1.1218,-1.1279,-1.1356,-1.1412,-1.147,-1.1518,-1.1583,-1.1633,-1.1689,-1.1745,-1.1807,-1.1829,-1.1858,-1.1891,-1.1951,-1.1973,-1.1951,-1.203,-1.2032,-1.2008,-1.2011,-1.1994,-1.2016,-1.2017,-1.2017,-1.2018,0,-1.1151,-1.1217,-1.1299,-1.139,-1.1416,-1.1458,-1.1535,-1.1587,-1.1662,-1.1696,-1.175,-1.1795,-1.1856,-1.1865,-1.195,-1.1933,-1.197,-1.2004,-1.2006,-1.2017,-1.2025,-1.2022,-1.2024,-1.2027,-1.2025,-1.2024,-1.2024,0,-1.1118,-1.1228,-1.1291,-1.1327,-1.1435,-1.1464,-1.151,-1.1585,-1.1628,-1.1695,-1.1724,-1.1797,-1.1837,-1.1892,-1.1956,-1.1957,-1.2035,-1.205,-1.2066,-1.2064,-1.208,-1.2078,-1.2088,-1.2102,-1.2102,-1.2102,-1.2102,0,-1.1132,-1.118,-1.1278,-1.1317,-1.1373,-1.1443,-1.1496,-1.1547,-1.1613,-1.1664,-1.1719,-1.1765,-1.1846,-1.1902,-1.1952,-1.2016,-1.2033,-1.2063,-1.2076,-1.2059,-1.2055,-1.2084,-1.2084,-1.2103,-1.2103,-1.2103,-1.2103,0,-1.1105,-1.1173,-1.1246,-1.1342,-1.1368,-1.1405,-1.1488,-1.1528,-1.1581,-1.1644,-1.1663,-1.1746,-1.1816,-1.1885,-1.1978,-1.2012,-1.2074,-1.2091,-1.2048,-1.2056,-1.2068,-1.2066,-1.2098,-1.2106,-1.2113,-1.2113,-1.2113,0,-1.1109,-1.1148,-1.1248,-1.1286,-1.1331,-1.1391,-1.1435,-1.1505,-1.1549,-1.1638,-1.1668,-1.1741,-1.1803,-1.1911,-1.198,-1.2052,-1.2071,-1.2077,-1.2083,-1.2064,-1.2072,-1.2069,-1.2074,-1.2075,-1.2075,-1.2074,-1.2074,0,-1.1109,-1.1141,-1.1203,-1.1276,-1.1328,-1.1389,-1.1452,-1.148,-1.1563,-1.1609,-1.1681,-1.1729,-1.1824,-1.1896,-1.1976,-1.2025,-1.2063,-1.2072,-1.208,-1.2062,-1.2036,-1.2051,-1.2043,-1.2071,-1.2071,-1.2071,-1.2072,-1.2072,-1.1099,-1.1136,-1.1213,-1.128,-1.1335,-1.1393,-1.1436,-1.1494,-1.1555,-1.1638,-1.1676,-1.1747,-1.1822,-1.1934,-1.1981,-1.2039,-1.2049,-1.206,-1.2063,-1.2065,-1.2061,-1.2026,-1.2054,-1.2054,-1.2054,-1.2054,-1.2054,0,-1.1103,-1.1155,-1.1216,-1.1303,-1.1356,-1.1387,-1.1459,-1.1501,-1.1564,-1.163,-1.169,-1.1773,-1.1843,-1.1918,-1.1993,-1.2024,-1.2044,-1.2042,-1.204,-1.2051,-1.2047,-1.2033,-1.2025,-1.2025,-1.2025,-1.2025,-1.2025,-1.2025,-1.1111,-1.1175,-1.1216,-1.1309,-1.1361,-1.1431,-1.147,-1.1524,-1.1577,-1.1667,-1.1725,-1.1774,-1.1844,-1.1924,-1.1991,-1.2011,-1.2036,-1.2029,-1.2054,-1.2049,-1.2051,-1.2053,-1.204,-1.2034,-1.2034,-1.2053,-1.2054,-1.2054]}]]